| time (UTC) | temp C | wind direction | speed KPH | gust KPH | rain 1hr cm | rain 24hr cm | rain mn cm | humidity % | barometer mb |
| 20260506014523 | 25 | 107 | 0.0 | 6.4 | 0.00 | 0.00 | 0.00 | 83 | 1006.7 |
| 20260506013003 | 25 | 165 | 0.0 | 3.2 | 0.00 | 0.00 | 0.00 | 81 | 1006.7 |
| 20260506011510 | 25 | 205 | 0.0 | 9.7 | 0.00 | 0.00 | 0.00 | 81 | 1006.5 |
| 20260506010029 | 25 | 199 | 0.0 | 6.4 | 0.00 | 0.00 | 0.00 | 81 | 1006.6 |
| 20260506004517 | 26 | 183 | 0.0 | 3.2 | 0.00 | 0.00 | 0.00 | 81 | 1006.5 |
| 20260506003023 | 26 | 328 | 0.0 | 3.2 | 0.00 | 0.00 | 0.00 | 80 | 1006.5 |
| 20260506001504 | 26 | 175 | 0.0 | 3.2 | 0.00 | 0.00 | 0.00 | 78 | 1006.6 |
| 20260506000013 | 26 | 33 | 1.6 | 9.7 | 0.00 | 0.00 | 0.00 | 78 | 1006.6 |
| 20260505234514 | 27 | 226 | 0.0 | 8.0 | 0.00 | 0.00 | 0.00 | 77 | 1006.4 |
| 20260505233020 | 27 | 261 | 0.0 | 8.0 | 0.00 | 0.00 | 0.00 | 77 | 1006.2 |
| 20260505231521 | 27 | 269 | 0.0 | 16.1 | 0.00 | 0.00 | 0.00 | 78 | 1006.1 |
| 20260505230006 | 27 | 150 | 1.6 | 11.3 | 0.00 | 0.00 | 0.00 | 76 | 1006.1 |
| 20260505224533 | 27 | 115 | 0.0 | 9.7 | 0.00 | 0.00 | 0.00 | 76 | 1006.0 |
| 20260505223018 | 27 | 126 | 1.6 | 14.5 | 0.00 | 0.00 | 0.00 | 73 | 1006.0 |
| 20260505221522 | 27 | 266 | 1.6 | 8.0 | 0.00 | 0.00 | 0.00 | 74 | 1005.9 |
| 20260505220027 | 28 | 182 | 1.6 | 14.5 | 0.00 | 0.00 | 0.00 | 71 | 1006.1 |
| 20260505214512 | 28 | 300 | 1.6 | 14.5 | 0.00 | 0.00 | 0.00 | 73 | 1006.4 |
| 20260505213021 | 28 | 122 | 3.2 | 11.3 | 0.00 | 0.00 | 0.00 | 75 | 1006.5 |
| 20260505211522 | 28 | 63 | 0.0 | 16.1 | 0.00 | 0.00 | 0.00 | 75 | 1006.8 |
| 20260505210022 | 28 | 207 | 3.2 | 12.9 | 0.00 | 0.00 | 0.00 | 70 | 1006.8 |
| 20260505204527 | 28 | 339 | 1.6 | 11.3 | 0.00 | 0.00 | 0.00 | 71 | 1006.9 |
| 20260505203036 | 28 | 136 | 3.2 | 14.5 | 0.00 | 0.00 | 0.00 | 74 | 1007.1 |
| 20260505201519 | 28 | 167 | 1.6 | 14.5 | 0.00 | 0.00 | 0.00 | 72 | 1007.4 |
| 20260505200021 | 28 | 155 | 1.6 | 6.4 | 0.00 | 0.00 | 0.00 | 75 | 1007.7 |
| 20260505194526 | 28 | 155 | 0.0 | 14.5 | 0.00 | 0.00 | 0.00 | 74 | 1007.9 |
| 20260505193028 | 27 | 132 | 0.0 | 9.7 | 0.00 | 0.00 | 0.00 | 76 | 1008.1 |
| 20260505191518 | 27 | 221 | 1.6 | 14.5 | 0.00 | 0.00 | 0.00 | 78 | 1008.2 |
| 20260505190029 | 26 | 218 | 1.6 | 16.1 | 0.00 | 0.00 | 0.00 | 77 | 1008.3 |
| 20260505184525 | 26 | 71 | 1.6 | 9.7 | 0.00 | 0.00 | 0.00 | 78 | 1008.6 |
| 20260505183042 | 25 | 258 | 1.6 | 8.0 | 0.00 | 0.00 | 0.00 | 78 | 1008.7 |
| 20260505181503 | 25 | 114 | 1.6 | 14.5 | 0.00 | 0.00 | 0.00 | 79 | 1008.9 |
| 20260505180004 | 24 | 266 | 3.2 | 16.1 | 0.00 | 0.00 | 0.00 | 80 | 1009.1 |
| 20260505174504 | 25 | 248 | 3.2 | 12.9 | 0.00 | 0.00 | 0.00 | 80 | 1009.3 |
| 20260505173004 | 24 | 225 | 1.6 | 9.7 | 0.00 | 0.00 | 0.00 | 84 | 1009.3 |
| 20260505171507 | 23 | 219 | 0.0 | 9.7 | 0.00 | 0.00 | 0.00 | 83 | 1009.4 |
| 20260505170008 | 23 | 172 | 1.6 | 11.3 | 0.00 | 0.00 | 0.00 | 85 | 1009.5 |
| 20260505164503 | 23 | 250 | 1.6 | 11.3 | 0.00 | 0.00 | 0.00 | 85 | 1009.5 |
| 20260505163009 | 22 | 287 | 1.6 | 12.9 | 0.00 | 0.00 | 0.00 | 86 | 1009.5 |
| 20260505161508 | 22 | 270 | 1.6 | 12.9 | 0.00 | 0.00 | 0.00 | 87 | 1009.4 |
| 20260505153012 | 22 | 21 | 3.2 | 11.3 | 0.00 | 0.00 | 0.00 | 87 | 1009.6 |
| 20260505151506 | 22 | 212 | 3.2 | 11.3 | 0.00 | 0.00 | 0.00 | 87 | 1009.4 |
| 20260505124515 | 21 | 202 | 1.6 | 8.0 | 0.00 | 0.00 | 0.00 | 88 | 1008.2 |
| 20260505123019 | 21 | 128 | 1.6 | 11.3 | 0.00 | 0.00 | 0.00 | 88 | 1007.9 |
| 20260505121526 | 21 | 169 | 1.6 | 8.0 | 0.00 | 0.00 | 0.00 | 88 | 1007.7 |
| 20260505120033 | 21 | 223 | 1.6 | 11.3 | 0.00 | 0.00 | 0.00 | 88 | 1007.5 |
| 20260505114515 | 21 | 131 | 1.6 | 12.9 | 0.00 | 0.00 | 0.00 | 88 | 1007.5 |
| 20260505113020 | 21 | 122 | 1.6 | 12.9 | 0.00 | 0.00 | 0.00 | 87 | 1007.7 |
| 20260505111521 | 21 | 297 | 3.2 | 14.5 | 0.00 | 0.00 | 0.00 | 87 | 1007.5 |
| 20260505101524 | 21 | 175 | 3.2 | 14.5 | 0.00 | 0.00 | 0.00 | 86 | 1008.1 |
| 20260505100027 | 21 | 325 | 0.0 | 6.4 | 0.00 | 0.00 | 0.00 | 86 | 1008.1 |
| 20260505094524 | 21 | 254 | 0.0 | 8.0 | 0.00 | 0.00 | 0.00 | 86 | 1007.9 |
| 20260505093014 | 21 | 28 | 3.2 | 12.9 | 0.00 | 0.00 | 0.00 | 86 | 1008.1 |
| 20260505091513 | 21 | 136 | 1.6 | 6.4 | 0.00 | 0.00 | 0.00 | 86 | 1008.1 |
| 20260505090012 | 21 | 95 | 3.2 | 12.9 | 0.00 | 0.00 | 0.00 | 87 | 1008.2 |
| 20260505084507 | 21 | 203 | 1.6 | 12.9 | 0.00 | 0.00 | 0.00 | 86 | 1008.2 |
| 20260505083014 | 21 | 202 | 3.2 | 11.3 | 0.00 | 0.00 | 0.00 | 86 | 1008.4 |
| 20260505081518 | 21 | 194 | 1.6 | 11.3 | 0.00 | 0.00 | 0.00 | 86 | 1008.6 |
| 20260505080003 | 21 | 262 | 1.6 | 17.7 | 0.00 | 0.00 | 0.00 | 85 | 1008.6 |
| 20260505074505 | 21 | 332 | 4.8 | 16.1 | 0.00 | 0.00 | 0.00 | 85 | 1008.9 |
| 20260505073024 | 21 | 105 | 1.6 | 12.9 | 0.00 | 0.00 | 0.00 | 85 | 1008.9 |
| 20260505071519 | 21 | 294 | 3.2 | 17.7 | 0.00 | 0.00 | 0.00 | 85 | 1009.1 |
| 20260505070022 | 21 | 206 | 1.6 | 14.5 | 0.00 | 0.00 | 0.00 | 85 | 1009.2 |
| 20260505064516 | 21 | 59 | 1.6 | 11.3 | 0.00 | 0.00 | 0.00 | 85 | 1009.4 |
| 20260505063010 | 21 | 209 | 1.6 | 12.9 | 0.00 | 0.00 | 0.00 | 84 | 1009.6 |
| 20260505061528 | 21 | 304 | 3.2 | 16.1 | 0.00 | 0.00 | 0.00 | 84 | 1009.7 |
| 20260505060019 | 21 | 96 | 1.6 | 6.4 | 0.00 | 0.00 | 0.00 | 84 | 1009.8 |
| 20260505054539 | 21 | 31 | 1.6 | 8.0 | 0.00 | 0.00 | 0.00 | 84 | 1009.7 |
| 20260505053005 | 21 | 19 | 1.6 | 8.0 | 0.00 | 0.00 | 0.00 | 84 | 1009.7 |
| 20260505051528 | 21 | 306 | 1.6 | 14.5 | 0.00 | 0.00 | 0.00 | 84 | 1009.7 |
| 20260505041512 | 22 | 133 | 1.6 | 14.5 | 0.00 | 0.00 | 0.00 | 82 | 1009.5 |
| 20260505040016 | 22 | 151 | 1.6 | 9.7 | 0.00 | 0.00 | 0.00 | 82 | 1009.5 |
| 20260505034519 | 22 | 148 | 1.6 | 8.0 | 0.00 | 0.00 | 0.00 | 81 | 1009.5 |
| 20260505033024 | 22 | 214 | 1.6 | 12.9 | 0.00 | 0.00 | 0.00 | 81 | 1009.4 |
| 20260505031540 | 22 | 111 | 1.6 | 9.7 | 0.00 | 0.00 | 0.00 | 80 | 1009.4 |
| 20260505030014 | 22 | 195 | 0.0 | 8.0 | 0.00 | 0.00 | 0.00 | 79 | 1009.5 |
| 20260505024531 | 22 | 342 | 1.6 | 9.7 | 0.00 | 0.00 | 0.00 | 78 | 1009.4 |
| 20260505023027 | 23 | 145 | 0.0 | 8.0 | 0.00 | 0.00 | 0.00 | 77 | 1009.3 |
| 20260505021527 | 23 | 216 | 0.0 | 8.0 | 0.00 | 0.00 | 0.00 | 76 | 1009.3 |
| 20260505020031 | 23 | 315 | 1.6 | 6.4 | 0.00 | 0.00 | 0.00 | 74 | 1009.2 |